RH
34 35 37 40 39 35 40 54 66 59 52 54 65 56 59 58 65 68 75 71 63 65 64 64 68 78 72 67 61 61 60 59 54 53 53 52 54 52 48 46 50 48 46 43
39 35 37 39 35 37 34 31 32 40 42 54 58 50 58 59 68 71 68 65 61 59 64 67 66 61 69 66 68 71 71 63 60 58 59 57 52 50 50 52 47 48 44 42
44 44 47 42 28 31 27 30 29 27 23 37 45 47 57 62 60 69 75 75 71 76 81 76 74 76 73 69 71 73 73 71 63 59 59 57 55 54 53 51 50 45 44 42
63 56 72 31 27 30 37 33 28 21 24 36 41 43 47 62 50 57 63 76 68 71 74 78 80 80 82 81 80 78 73 66 65 60 58 59 56 55 52 51 49 47 47 46
75 62 47 32 26 38 49 35 29 26 33 38 40 34 33 43 51 55 53 60 66 62 67 73 81 86 89 92 88 77 72 69 63 62 60 59 57 56 55 55 54 51 49 46
82 84 77 22 34 43 53 49 32 43 49 42 41 39 31 40 47 43 51 59 60 62 65 75 80 85 93 92 90 84 82 76 65 61 59 59 61 60 58 56 51 50 45 43
85 94 68 37 40 55 66 41 38 49 52 56 55 47 41 35 42 60 70 66 64 67 67 75 79 86 88 90 91 87 81 71 66 65 62 61 61 59 55 49 46 43 40 40
81 86 79 48 50 66 56 37 40 47 46 47 47 43 39 45 59 82 90 84 78 76 76 79 87 89 88 91 92 86 82 76 70 66 64 65 60 54 49 45 43 41 40 38
90 77 53 50 58 57 51 38 38 42 33 38 42 35 41 56 69 69 87 91 86 86 91 93 98 92 91 93 91 87 81 78 74 66 64 58 54 49 46 47 43 42 39 37
76 55 54 51 59 58 54 46 46 40 34 34 35 34 45 59 62 75 91 97 98 95 90 90 88 91 96 97 95 87 78 74 69 65 61 53 45 44 44 44 41 36 31 28
72 64 58 59 51 52 57 47 41 38 36 33 36 36 47 51 61 75 93 98 99 94 92 94 95 98 97 91 86 79 74 71 66 57 49 46 45 42 39 35 32 29 28 27
66 49 63 57 52 56 56 48 47 44 39 33 37 46 50 57 73 75 84 98 99 98 97 97 97 96 92 87 80 73 65 58 53 47 45 41 37 32 29 26 24 23 24 26
80 76 72 70 57 53 57 54 58 51 42 35 40 48 64 75 80 93 95 95 98 98 96 95 91 85 81 81 71 60 53 46 42 38 33 29 27 23 20 19 18 17 17 17
81 81 71 65 65 61 66 63 54 47 42 41 52 59 74 87 93 97 98 97 96 97 95 90 87 80 73 62 53 45 40 35 31 29 27 24 22 20 19 17 18 16 16 16
81 80 78 62 63 60 62 57 55 57 50 55 58 71 79 92 97 97 97 97 98 95 89 83 77 68 60 48 41 37 34 31 29 27 24 21 18 17 18 19 20 21 19 18
98 94 82 79 63 65 64 61 65 64 64 68 72 85 97 98 96 97 98 93 89 82 77 69 58 53 46 43 41 37 31 26 23 20 17 15 16 17 17 18 21 23 25 28
98 97 98 91 84 78 73 79 77 75 75 80 84 95 98 97 95 95 89 81 78 69 62 54 53 52 44 36 29 26 24 21 17 15 16 16 16 16 19 21 22 24 27 32
98 98 97 96 93 86 86 84 79 78 81 84 96 93 97 97 96 92 81 73 65 61 54 48 44 37 32 28 24 20 17 16 16 15 15 15 17 19 20 22 24 26 29 33
97 97 96 93 98 89 81 84 85 89 94 97 97 97 97 95 88 79 68 57 50 47 47 41 34 29 23 20 16 16 16 15 15 15 16 18 18 20 22 24 26 29 33 37
97 97 97 92 92 96 92 89 92 97 97 97 97 96 88 78 67 59 53 49 47 43 36 29 22 19 18 17 17 16 15 15 16 17 17 18 20 21 23 26 30 34 38 42
95 97 97 95 95 96 96 94 93 97 97 96 87 77 71 67 56 50 47 42 40 33 27 23 20 18 18 18 15 15 15 16 16 17 18 19 21 23 26 30 34 38 43 47
95 95 95 94 96 96 97 97 97 96 90 82 72 61 54 49 44 39 35 30 29 24 21 20 20 19 17 15 15 15 16 16 17 18 19 21 23 26 28 30 33 37 42 48
96 97 97 98 97 96 95 88 81 71 60 52 50 47 41 39 35 32 30 29 25 23 21 20 18 16 15 15 15 16 17 17 17 19 20 22 23 23 24 27 30 33 37 42
91 88 85 85 80 72 68 65 58 53 51 47 43 39 37 35 33 30 27 26 23 22 19 18 16 15 15 16 16 17 17 18 19 19 19 19 19 20 21 23 27 31 34 37
81 75 71 67 62 59 53 49 47 45 43 42 40 39 36 33 27 28 26 24 22 19 17 16 16 16 16 17 17 17 17 18 16 15 15 15 16 17 19 20 22 25 30 33
73 69 65 61 56 55 51 47 44 45 44 42 40 35 30 27 27 26 24 23 20 18 16 16 16 17 17 17 18 17 16 14 14 14 15 16 16 18 19 22 24 26 27 27
68 66 63 59 58 56 54 49 45 45 43 39 35 32 29 27 27 25 23 19 18 17 17 17 17 17 18 18 17 15 14 15 15 16 17 18 19 21 22 24 26 28 30 30